Terminal Aerodrome Forecast
Issued by NWS Wilmington, OH

Current Version | Previous Version | Graphics & Text | Print | Product List | Glossary On
Versions: 1 2 3 4 5 6 7 8 9 10 11 12 13 14 15 16 17 18 19 20 21 22 23 24 25 26 27 28
345
FTUS41 KILN 261846 AAA
TAFCVG
TAF AMD
KCVG 261846Z 2619/2724 03006KT P6SM VCSH BKN035
      TEMPO 2619/2620 BKN008
     FM262300 VRB04KT P6SM SCT040 BKN150
     FM270800 VRB03KT 5SM BR BKN150
     FM271200 VRB03KT P6SM BKN150
     FM271800 26004KT P6SM VCTS SCT040CB BKN150=

USA.gov is the U.S. government's official web portal to all federal, state and local government web resources and services.